Multibeam Report for MV1012


Ship Name: Melville
Chief Scientist: Summers, Mindi
Scripps Institution of Oceanography
Source Organization: UNOLS R2R
Start Date: 2010-09-25
End Date: 2010-10-03


View ISO Metadata

Visit the full NCEI Bathymetry Viewer


Multibeam Bathymetry

Cruise Details

Project: Exploring the Santa Barbara Anoxic Basin: Connecting the Past to the Present
Instrument: Kongsberg EM122

Data Quality

Number of Files: 373
Number of Records: 507582
BATHYMETRY DATA Quantity Percentage
Number of Beams 219275424 100%
Number of Good Beams 213929716 97.56%
Number of Zero Beams 0 0%
Number of Flagged Beams 5345708 2.44%

Navigation Totals

Total Time: 184.2175 hours
Total Track Length: 856.6428 km
Average Speed: 4.65 km/hr (2.5108 knots)

Cruise Bounds

Northern Extent: 34.398674
Southern Extent: 32.86402
Western Extent: -120.152466
Eastern Extent: -117.75025

Limits

Minimum Sonar Depth 3.3373 Maximum Sonar Depth 7.0966
Minimum Altitude 79.0343 Maximum Altitude 5812.9224
Minimum Depth 68.8062 Maximum Depth 6440.626

File Information

Full Resolution Bathymetry as collected (raw): 371

Files File Size Description
0000_20100925_194621_Melville.all.mb58.gz 59.90MB Kongsberg multibeam vendor format
0001_20100925_201624_Melville.all.mb58.gz 59.11MB Kongsberg multibeam vendor format
0002_20100925_204621_Melville.all.mb58.gz 62.84MB Kongsberg multibeam vendor format
0003_20100925_211622_Melville.all.mb58.gz 62.62MB Kongsberg multibeam vendor format
0004_20100925_214624_Melville.all.mb58.gz 60.53MB Kongsberg multibeam vendor format
0005_20100925_221624_Melville.all.mb58.gz 59.32MB Kongsberg multibeam vendor format
0006_20100925_224622_Melville.all.mb58.gz 59.12MB Kongsberg multibeam vendor format
0007_20100925_231625_Melville.all.mb58.gz 58.22MB Kongsberg multibeam vendor format
0008_20100925_234622_Melville.all.mb58.gz 57.99MB Kongsberg multibeam vendor format
0009_20100926_001624_Melville.all.mb58.gz 58.24MB Kongsberg multibeam vendor format
0010_20100926_004625_Melville.all.mb58.gz 56.15MB Kongsberg multibeam vendor format
0011_20100926_011622_Melville.all.mb58.gz 56.52MB Kongsberg multibeam vendor format
0012_20100926_014625_Melville.all.mb58.gz 58.68MB Kongsberg multibeam vendor format
0013_20100926_021623_Melville.all.mb58.gz 65.71MB Kongsberg multibeam vendor format
0014_20100926_024623_Melville.all.mb58.gz 60.59MB Kongsberg multibeam vendor format
0015_20100926_031627_Melville.all.mb58.gz 53.26MB Kongsberg multibeam vendor format
0016_20100926_034627_Melville.all.mb58.gz 53.65MB Kongsberg multibeam vendor format
0017_20100926_041627_Melville.all.mb58.gz 49.25MB Kongsberg multibeam vendor format
0018_20100926_044626_Melville.all.mb58.gz 49.71MB Kongsberg multibeam vendor format
0019_20100926_051622_Melville.all.mb58.gz 52.16MB Kongsberg multibeam vendor format
0020_20100926_054623_Melville.all.mb58.gz 53.64MB Kongsberg multibeam vendor format
0021_20100926_061623_Melville.all.mb58.gz 64.32MB Kongsberg multibeam vendor format
0022_20100926_064622_Melville.all.mb58.gz 131.27MB Kongsberg multibeam vendor format
0023_20100926_071621_Melville.all.mb58.gz 45.30MB Kongsberg multibeam vendor format
0024_20100926_074621_Melville.all.mb58.gz 96.84MB Kongsberg multibeam vendor format
0025_20100926_081622_Melville.all.mb58.gz 71.10MB Kongsberg multibeam vendor format
0026_20100926_084621_Melville.all.mb58.gz 71.48MB Kongsberg multibeam vendor format
0027_20100926_091621_Melville.all.mb58.gz 71.56MB Kongsberg multibeam vendor format
0028_20100926_094621_Melville.all.mb58.gz 71.56MB Kongsberg multibeam vendor format
0029_20100926_101622_Melville.all.mb58.gz 71.38MB Kongsberg multibeam vendor format
0030_20100926_104622_Melville.all.mb58.gz 71.44MB Kongsberg multibeam vendor format
0031_20100926_111621_Melville.all.mb58.gz 71.59MB Kongsberg multibeam vendor format
0032_20100926_114623_Melville.all.mb58.gz 71.57MB Kongsberg multibeam vendor format
0033_20100926_121623_Melville.all.mb58.gz 71.34MB Kongsberg multibeam vendor format
0034_20100926_124622_Melville.all.mb58.gz 71.48MB Kongsberg multibeam vendor format
0035_20100926_131622_Melville.all.mb58.gz 71.37MB Kongsberg multibeam vendor format
0036_20100926_134622_Melville.all.mb58.gz 71.38MB Kongsberg multibeam vendor format
0037_20100926_141622_Melville.all.mb58.gz 71.28MB Kongsberg multibeam vendor format
0038_20100926_144622_Melville.all.mb58.gz 71.65MB Kongsberg multibeam vendor format
0039_20100926_151622_Melville.all.mb58.gz 71.63MB Kongsberg multibeam vendor format
0040_20100926_154621_Melville.all.mb58.gz 71.63MB Kongsberg multibeam vendor format
0041_20100926_161622_Melville.all.mb58.gz 71.58MB Kongsberg multibeam vendor format
0042_20100926_164621_Melville.all.mb58.gz 71.45MB Kongsberg multibeam vendor format
0043_20100926_171622_Melville.all.mb58.gz 71.54MB Kongsberg multibeam vendor format
0044_20100926_174622_Melville.all.mb58.gz 71.38MB Kongsberg multibeam vendor format
0045_20100926_181622_Melville.all.mb58.gz 71.64MB Kongsberg multibeam vendor format
0046_20100926_184621_Melville.all.mb58.gz 71.68MB Kongsberg multibeam vendor format
0047_20100926_191622_Melville.all.mb58.gz 71.36MB Kongsberg multibeam vendor format
0048_20100926_194621_Melville.all.mb58.gz 71.55MB Kongsberg multibeam vendor format
0049_20100926_201621_Melville.all.mb58.gz 71.71MB Kongsberg multibeam vendor format
0050_20100926_204621_Melville.all.mb58.gz 71.72MB Kongsberg multibeam vendor format
0051_20100926_211622_Melville.all.mb58.gz 71.66MB Kongsberg multibeam vendor format
0052_20100926_214622_Melville.all.mb58.gz 71.51MB Kongsberg multibeam vendor format
0053_20100926_221621_Melville.all.mb58.gz 71.63MB Kongsberg multibeam vendor format
0054_20100926_224622_Melville.all.mb58.gz 71.60MB Kongsberg multibeam vendor format
0055_20100926_231620_Melville.all.mb58.gz 71.71MB Kongsberg multibeam vendor format
0056_20100926_234620_Melville.all.mb58.gz 71.73MB Kongsberg multibeam vendor format
0057_20100927_001621_Melville.all.mb58.gz 71.67MB Kongsberg multibeam vendor format
0058_20100927_004621_Melville.all.mb58.gz 71.62MB Kongsberg multibeam vendor format
0059_20100927_011620_Melville.all.mb58.gz 71.72MB Kongsberg multibeam vendor format
0060_20100927_014622_Melville.all.mb58.gz 71.65MB Kongsberg multibeam vendor format
0061_20100927_021620_Melville.all.mb58.gz 71.64MB Kongsberg multibeam vendor format
0062_20100927_024620_Melville.all.mb58.gz 71.72MB Kongsberg multibeam vendor format
0063_20100927_031621_Melville.all.mb58.gz 71.61MB Kongsberg multibeam vendor format
0064_20100927_034621_Melville.all.mb58.gz 71.67MB Kongsberg multibeam vendor format
0065_20100927_041621_Melville.all.mb58.gz 71.66MB Kongsberg multibeam vendor format
0066_20100927_044622_Melville.all.mb58.gz 71.71MB Kongsberg multibeam vendor format
0067_20100927_051621_Melville.all.mb58.gz 71.78MB Kongsberg multibeam vendor format
0068_20100927_054622_Melville.all.mb58.gz 71.65MB Kongsberg multibeam vendor format
0069_20100927_061621_Melville.all.mb58.gz 71.54MB Kongsberg multibeam vendor format
0070_20100927_064620_Melville.all.mb58.gz 71.45MB Kongsberg multibeam vendor format
0071_20100927_071621_Melville.all.mb58.gz 72.57MB Kongsberg multibeam vendor format
0072_20100927_074622_Melville.all.mb58.gz 72.95MB Kongsberg multibeam vendor format
0073_20100927_081622_Melville.all.mb58.gz 72.82MB Kongsberg multibeam vendor format
0074_20100927_084621_Melville.all.mb58.gz 72.15MB Kongsberg multibeam vendor format
0075_20100927_091621_Melville.all.mb58.gz 71.79MB Kongsberg multibeam vendor format
0076_20100927_094619_Melville.all.mb58.gz 71.78MB Kongsberg multibeam vendor format
0077_20100927_101621_Melville.all.mb58.gz 71.40MB Kongsberg multibeam vendor format
0078_20100927_104620_Melville.all.mb58.gz 72.56MB Kongsberg multibeam vendor format
0079_20100927_111620_Melville.all.mb58.gz 324.60MB Kongsberg multibeam vendor format
0080_20100927_133113_Melville.all.mb58.gz 71.85MB Kongsberg multibeam vendor format
0081_20100927_140114_Melville.all.mb58.gz 71.73MB Kongsberg multibeam vendor format
0082_20100927_143114_Melville.all.mb58.gz 71.69MB Kongsberg multibeam vendor format
0083_20100927_150114_Melville.all.mb58.gz 71.54MB Kongsberg multibeam vendor format
0084_20100927_153114_Melville.all.mb58.gz 71.76MB Kongsberg multibeam vendor format
0085_20100927_160114_Melville.all.mb58.gz 71.78MB Kongsberg multibeam vendor format
0086_20100927_163115_Melville.all.mb58.gz 71.72MB Kongsberg multibeam vendor format
0087_20100927_170113_Melville.all.mb58.gz 71.92MB Kongsberg multibeam vendor format
0088_20100927_173115_Melville.all.mb58.gz 71.65MB Kongsberg multibeam vendor format
0089_20100927_180113_Melville.all.mb58.gz 71.81MB Kongsberg multibeam vendor format
0090_20100927_183115_Melville.all.mb58.gz 71.62MB Kongsberg multibeam vendor format
0091_20100927_190114_Melville.all.mb58.gz 71.58MB Kongsberg multibeam vendor format
0092_20100927_193113_Melville.all.mb58.gz 71.58MB Kongsberg multibeam vendor format
0093_20100927_200113_Melville.all.mb58.gz 71.64MB Kongsberg multibeam vendor format
0094_20100927_203113_Melville.all.mb58.gz 71.98MB Kongsberg multibeam vendor format
0095_20100927_210114_Melville.all.mb58.gz 72.03MB Kongsberg multibeam vendor format
0096_20100927_213114_Melville.all.mb58.gz 71.90MB Kongsberg multibeam vendor format
0097_20100927_220114_Melville.all.mb58.gz 71.92MB Kongsberg multibeam vendor format
0098_20100927_223114_Melville.all.mb58.gz 71.97MB Kongsberg multibeam vendor format
0099_20100927_230114_Melville.all.mb58.gz 71.91MB Kongsberg multibeam vendor format
0100_20100927_233114_Melville.all.mb58.gz 71.75MB Kongsberg multibeam vendor format
0101_20100928_000112_Melville.all.mb58.gz 71.78MB Kongsberg multibeam vendor format
0102_20100928_003112_Melville.all.mb58.gz 71.79MB Kongsberg multibeam vendor format
0103_20100928_010113_Melville.all.mb58.gz 71.90MB Kongsberg multibeam vendor format
0104_20100928_013114_Melville.all.mb58.gz 72.36MB Kongsberg multibeam vendor format
0105_20100928_020125_Melville.all.mb58.gz 72.03MB Kongsberg multibeam vendor format
0106_20100928_023125_Melville.all.mb58.gz 71.78MB Kongsberg multibeam vendor format
0107_20100928_030125_Melville.all.mb58.gz 71.70MB Kongsberg multibeam vendor format
0108_20100928_033124_Melville.all.mb58.gz 71.79MB Kongsberg multibeam vendor format
0109_20100928_040124_Melville.all.mb58.gz 71.84MB Kongsberg multibeam vendor format
0110_20100928_043123_Melville.all.mb58.gz 71.82MB Kongsberg multibeam vendor format
0111_20100928_050124_Melville.all.mb58.gz 71.47MB Kongsberg multibeam vendor format
0112_20100928_053123_Melville.all.mb58.gz 72.07MB Kongsberg multibeam vendor format
0113_20100928_060124_Melville.all.mb58.gz 71.89MB Kongsberg multibeam vendor format
0114_20100928_063123_Melville.all.mb58.gz 71.55MB Kongsberg multibeam vendor format
0115_20100928_070124_Melville.all.mb58.gz 71.39MB Kongsberg multibeam vendor format
0116_20100928_073123_Melville.all.mb58.gz 71.81MB Kongsberg multibeam vendor format
0117_20100928_080123_Melville.all.mb58.gz 71.62MB Kongsberg multibeam vendor format
0118_20100928_083124_Melville.all.mb58.gz 71.60MB Kongsberg multibeam vendor format
0119_20100928_090124_Melville.all.mb58.gz 71.97MB Kongsberg multibeam vendor format
0120_20100928_093124_Melville.all.mb58.gz 72.11MB Kongsberg multibeam vendor format
0121_20100928_100124_Melville.all.mb58.gz 72.03MB Kongsberg multibeam vendor format
0122_20100928_103124_Melville.all.mb58.gz 72.05MB Kongsberg multibeam vendor format
0123_20100928_110124_Melville.all.mb58.gz 71.86MB Kongsberg multibeam vendor format
0124_20100928_113123_Melville.all.mb58.gz 71.64MB Kongsberg multibeam vendor format
0125_20100928_120124_Melville.all.mb58.gz 71.46MB Kongsberg multibeam vendor format
0126_20100928_123124_Melville.all.mb58.gz 71.69MB Kongsberg multibeam vendor format
0127_20100928_130124_Melville.all.mb58.gz 71.24MB Kongsberg multibeam vendor format
0128_20100928_133123_Melville.all.mb58.gz 71.68MB Kongsberg multibeam vendor format
0129_20100928_140124_Melville.all.mb58.gz 71.74MB Kongsberg multibeam vendor format
0130_20100928_143123_Melville.all.mb58.gz 71.77MB Kongsberg multibeam vendor format
0131_20100928_150124_Melville.all.mb58.gz 71.70MB Kongsberg multibeam vendor format
0132_20100928_153124_Melville.all.mb58.gz 71.80MB Kongsberg multibeam vendor format
0133_20100928_160124_Melville.all.mb58.gz 71.77MB Kongsberg multibeam vendor format
0134_20100928_163123_Melville.all.mb58.gz 71.70MB Kongsberg multibeam vendor format
0135_20100928_170125_Melville.all.mb58.gz 71.61MB Kongsberg multibeam vendor format
0136_20100928_173124_Melville.all.mb58.gz 71.58MB Kongsberg multibeam vendor format
0137_20100928_180123_Melville.all.mb58.gz 71.80MB Kongsberg multibeam vendor format
0138_20100928_183125_Melville.all.mb58.gz 72.53MB Kongsberg multibeam vendor format
0139_20100928_190124_Melville.all.mb58.gz 73.05MB Kongsberg multibeam vendor format
0140_20100928_193123_Melville.all.mb58.gz 74.06MB Kongsberg multibeam vendor format
0141_20100928_200123_Melville.all.mb58.gz 74.83MB Kongsberg multibeam vendor format
0142_20100928_203124_Melville.all.mb58.gz 71.97MB Kongsberg multibeam vendor format
0143_20100928_210124_Melville.all.mb58.gz 71.54MB Kongsberg multibeam vendor format
0144_20100928_213123_Melville.all.mb58.gz 71.64MB Kongsberg multibeam vendor format
0145_20100928_220124_Melville.all.mb58.gz 71.70MB Kongsberg multibeam vendor format
0146_20100928_223124_Melville.all.mb58.gz 71.49MB Kongsberg multibeam vendor format
0147_20100928_230122_Melville.all.mb58.gz 71.58MB Kongsberg multibeam vendor format
0148_20100928_233123_Melville.all.mb58.gz 71.51MB Kongsberg multibeam vendor format
0149_20100929_000122_Melville.all.mb58.gz 71.63MB Kongsberg multibeam vendor format
0150_20100929_003124_Melville.all.mb58.gz 71.43MB Kongsberg multibeam vendor format
0151_20100929_010123_Melville.all.mb58.gz 71.36MB Kongsberg multibeam vendor format
0152_20100929_013122_Melville.all.mb58.gz 71.53MB Kongsberg multibeam vendor format
0153_20100929_020123_Melville.all.mb58.gz 71.40MB Kongsberg multibeam vendor format
0154_20100929_023122_Melville.all.mb58.gz 71.45MB Kongsberg multibeam vendor format
0155_20100929_030123_Melville.all.mb58.gz 71.46MB Kongsberg multibeam vendor format
0156_20100929_033123_Melville.all.mb58.gz 71.52MB Kongsberg multibeam vendor format
0157_20100929_040124_Melville.all.mb58.gz 72.08MB Kongsberg multibeam vendor format
0158_20100929_043122_Melville.all.mb58.gz 72.69MB Kongsberg multibeam vendor format
0159_20100929_050123_Melville.all.mb58.gz 72.45MB Kongsberg multibeam vendor format
0160_20100929_053123_Melville.all.mb58.gz 73.15MB Kongsberg multibeam vendor format
0161_20100929_060123_Melville.all.mb58.gz 73.71MB Kongsberg multibeam vendor format
0162_20100929_063122_Melville.all.mb58.gz 73.15MB Kongsberg multibeam vendor format
0163_20100929_070123_Melville.all.mb58.gz 74.34MB Kongsberg multibeam vendor format
0164_20100929_073123_Melville.all.mb58.gz 75.40MB Kongsberg multibeam vendor format
0165_20100929_080122_Melville.all.mb58.gz 74.62MB Kongsberg multibeam vendor format
0166_20100929_083124_Melville.all.mb58.gz 72.29MB Kongsberg multibeam vendor format
0167_20100929_090122_Melville.all.mb58.gz 72.22MB Kongsberg multibeam vendor format
0168_20100929_093123_Melville.all.mb58.gz 72.31MB Kongsberg multibeam vendor format
0169_20100929_100123_Melville.all.mb58.gz 72.33MB Kongsberg multibeam vendor format
0170_20100929_103123_Melville.all.mb58.gz 72.39MB Kongsberg multibeam vendor format
0171_20100929_110124_Melville.all.mb58.gz 71.30MB Kongsberg multibeam vendor format
0172_20100929_113123_Melville.all.mb58.gz 71.29MB Kongsberg multibeam vendor format
0173_20100929_120122_Melville.all.mb58.gz 71.60MB Kongsberg multibeam vendor format
0174_20100929_123123_Melville.all.mb58.gz 73.18MB Kongsberg multibeam vendor format
0175_20100929_130123_Melville.all.mb58.gz 106.67MB Kongsberg multibeam vendor format
0176_20100929_133122_Melville.all.mb58.gz 111.96MB Kongsberg multibeam vendor format
0177_20100929_140122_Melville.all.mb58.gz 111.88MB Kongsberg multibeam vendor format
0178_20100929_143121_Melville.all.mb58.gz 108.85MB Kongsberg multibeam vendor format
0179_20100929_150122_Melville.all.mb58.gz 79.67MB Kongsberg multibeam vendor format
0180_20100929_153121_Melville.all.mb58.gz 78.66MB Kongsberg multibeam vendor format
0181_20100929_160122_Melville.all.mb58.gz 76.42MB Kongsberg multibeam vendor format
0182_20100929_163123_Melville.all.mb58.gz 72.68MB Kongsberg multibeam vendor format
0183_20100929_170123_Melville.all.mb58.gz 72.96MB Kongsberg multibeam vendor format
0184_20100929_173123_Melville.all.mb58.gz 72.38MB Kongsberg multibeam vendor format
0185_20100929_180122_Melville.all.mb58.gz 71.70MB Kongsberg multibeam vendor format
0186_20100929_183123_Melville.all.mb58.gz 71.56MB Kongsberg multibeam vendor format
0187_20100929_190122_Melville.all.mb58.gz 71.62MB Kongsberg multibeam vendor format
0188_20100929_193122_Melville.all.mb58.gz 71.51MB Kongsberg multibeam vendor format
0189_20100929_200122_Melville.all.mb58.gz 71.58MB Kongsberg multibeam vendor format
0190_20100929_203122_Melville.all.mb58.gz 71.59MB Kongsberg multibeam vendor format
0191_20100929_210123_Melville.all.mb58.gz 71.67MB Kongsberg multibeam vendor format
0192_20100929_213123_Melville.all.mb58.gz 71.54MB Kongsberg multibeam vendor format
0193_20100929_220123_Melville.all.mb58.gz 71.52MB Kongsberg multibeam vendor format
0194_20100929_223123_Melville.all.mb58.gz 71.51MB Kongsberg multibeam vendor format
0195_20100929_230122_Melville.all.mb58.gz 71.28MB Kongsberg multibeam vendor format
0196_20100929_233121_Melville.all.mb58.gz 70.96MB Kongsberg multibeam vendor format
0197_20100930_000123_Melville.all.mb58.gz 70.65MB Kongsberg multibeam vendor format
0198_20100930_003122_Melville.all.mb58.gz 70.59MB Kongsberg multibeam vendor format
0199_20100930_010121_Melville.all.mb58.gz 70.76MB Kongsberg multibeam vendor format
0200_20100930_013123_Melville.all.mb58.gz 70.67MB Kongsberg multibeam vendor format
0201_20100930_020123_Melville.all.mb58.gz 70.99MB Kongsberg multibeam vendor format
0202_20100930_023123_Melville.all.mb58.gz 71.26MB Kongsberg multibeam vendor format
0203_20100930_030123_Melville.all.mb58.gz 71.50MB Kongsberg multibeam vendor format
0204_20100930_033121_Melville.all.mb58.gz 71.53MB Kongsberg multibeam vendor format
0205_20100930_040123_Melville.all.mb58.gz 71.36MB Kongsberg multibeam vendor format
0206_20100930_043122_Melville.all.mb58.gz 71.84MB Kongsberg multibeam vendor format
0207_20100930_050122_Melville.all.mb58.gz 71.53MB Kongsberg multibeam vendor format
0208_20100930_053122_Melville.all.mb58.gz 71.52MB Kongsberg multibeam vendor format
0209_20100930_060122_Melville.all.mb58.gz 71.37MB Kongsberg multibeam vendor format
0210_20100930_063123_Melville.all.mb58.gz 71.59MB Kongsberg multibeam vendor format
0211_20100930_070123_Melville.all.mb58.gz 72.41MB Kongsberg multibeam vendor format
0212_20100930_073121_Melville.all.mb58.gz 72.82MB Kongsberg multibeam vendor format
0213_20100930_080121_Melville.all.mb58.gz 73.21MB Kongsberg multibeam vendor format
0214_20100930_083121_Melville.all.mb58.gz 73.56MB Kongsberg multibeam vendor format
0215_20100930_090123_Melville.all.mb58.gz 73.70MB Kongsberg multibeam vendor format
0216_20100930_093123_Melville.all.mb58.gz 72.86MB Kongsberg multibeam vendor format
0217_20100930_100122_Melville.all.mb58.gz 72.10MB Kongsberg multibeam vendor format
0218_20100930_103123_Melville.all.mb58.gz 71.62MB Kongsberg multibeam vendor format
0219_20100930_110122_Melville.all.mb58.gz 71.53MB Kongsberg multibeam vendor format
0220_20100930_113122_Melville.all.mb58.gz 71.53MB Kongsberg multibeam vendor format
0221_20100930_120122_Melville.all.mb58.gz 71.14MB Kongsberg multibeam vendor format
0222_20100930_123121_Melville.all.mb58.gz 71.42MB Kongsberg multibeam vendor format
0223_20100930_130122_Melville.all.mb58.gz 71.30MB Kongsberg multibeam vendor format
0224_20100930_133121_Melville.all.mb58.gz 71.47MB Kongsberg multibeam vendor format
0225_20100930_140122_Melville.all.mb58.gz 71.46MB Kongsberg multibeam vendor format
0226_20100930_143122_Melville.all.mb58.gz 71.38MB Kongsberg multibeam vendor format
0227_20100930_150122_Melville.all.mb58.gz 74.60MB Kongsberg multibeam vendor format
0228_20100930_153121_Melville.all.mb58.gz 134.50MB Kongsberg multibeam vendor format
0229_20100930_160121_Melville.all.mb58.gz 130.75MB Kongsberg multibeam vendor format
0230_20100930_163120_Melville.all.mb58.gz 121.56MB Kongsberg multibeam vendor format
0231_20100930_170121_Melville.all.mb58.gz 108.87MB Kongsberg multibeam vendor format
0232_20100930_173120_Melville.all.mb58.gz 88.33MB Kongsberg multibeam vendor format
0233_20100930_180120_Melville.all.mb58.gz 86.59MB Kongsberg multibeam vendor format
0234_20100930_183121_Melville.all.mb58.gz 81.26MB Kongsberg multibeam vendor format
0235_20100930_190120_Melville.all.mb58.gz 82.48MB Kongsberg multibeam vendor format
0236_20100930_193122_Melville.all.mb58.gz 76.64MB Kongsberg multibeam vendor format
0237_20100930_200120_Melville.all.mb58.gz 75.94MB Kongsberg multibeam vendor format
0238_20100930_203120_Melville.all.mb58.gz 76.45MB Kongsberg multibeam vendor format
0239_20100930_210121_Melville.all.mb58.gz 74.35MB Kongsberg multibeam vendor format
0240_20100930_213120_Melville.all.mb58.gz 74.90MB Kongsberg multibeam vendor format
0241_20100930_220120_Melville.all.mb58.gz 72.92MB Kongsberg multibeam vendor format
0242_20100930_223121_Melville.all.mb58.gz 71.45MB Kongsberg multibeam vendor format
0243_20100930_230120_Melville.all.mb58.gz 71.13MB Kongsberg multibeam vendor format
0244_20100930_233121_Melville.all.mb58.gz 71.09MB Kongsberg multibeam vendor format
0245_20101001_000121_Melville.all.mb58.gz 71.12MB Kongsberg multibeam vendor format
0246_20101001_003121_Melville.all.mb58.gz 71.08MB Kongsberg multibeam vendor format
0247_20101001_010120_Melville.all.mb58.gz 71.25MB Kongsberg multibeam vendor format
0248_20101001_013121_Melville.all.mb58.gz 71.19MB Kongsberg multibeam vendor format
0249_20101001_020121_Melville.all.mb58.gz 71.16MB Kongsberg multibeam vendor format
0250_20101001_023121_Melville.all.mb58.gz 71.16MB Kongsberg multibeam vendor format
0251_20101001_030121_Melville.all.mb58.gz 71.17MB Kongsberg multibeam vendor format
0252_20101001_033121_Melville.all.mb58.gz 71.15MB Kongsberg multibeam vendor format
0253_20101001_040122_Melville.all.mb58.gz 71.06MB Kongsberg multibeam vendor format
0254_20101001_043121_Melville.all.mb58.gz 71.11MB Kongsberg multibeam vendor format
0255_20101001_050122_Melville.all.mb58.gz 70.79MB Kongsberg multibeam vendor format
0256_20101001_053120_Melville.all.mb58.gz 71.26MB Kongsberg multibeam vendor format
0257_20101001_060121_Melville.all.mb58.gz 71.82MB Kongsberg multibeam vendor format
0258_20101001_063120_Melville.all.mb58.gz 71.95MB Kongsberg multibeam vendor format
0259_20101001_070121_Melville.all.mb58.gz 72.11MB Kongsberg multibeam vendor format
0260_20101001_073120_Melville.all.mb58.gz 72.88MB Kongsberg multibeam vendor format
0261_20101001_080121_Melville.all.mb58.gz 73.55MB Kongsberg multibeam vendor format
0262_20101001_083121_Melville.all.mb58.gz 74.46MB Kongsberg multibeam vendor format
0263_20101001_090119_Melville.all.mb58.gz 74.27MB Kongsberg multibeam vendor format
0264_20101001_093120_Melville.all.mb58.gz 73.47MB Kongsberg multibeam vendor format
0265_20101001_100120_Melville.all.mb58.gz 72.69MB Kongsberg multibeam vendor format
0266_20101001_103121_Melville.all.mb58.gz 71.83MB Kongsberg multibeam vendor format
0267_20101001_110120_Melville.all.mb58.gz 71.56MB Kongsberg multibeam vendor format
0268_20101001_113122_Melville.all.mb58.gz 71.47MB Kongsberg multibeam vendor format
0269_20101001_120121_Melville.all.mb58.gz 71.29MB Kongsberg multibeam vendor format
0270_20101001_123120_Melville.all.mb58.gz 71.38MB Kongsberg multibeam vendor format
0271_20101001_130120_Melville.all.mb58.gz 71.10MB Kongsberg multibeam vendor format
0272_20101001_133120_Melville.all.mb58.gz 71.44MB Kongsberg multibeam vendor format
0273_20101001_140121_Melville.all.mb58.gz 72.12MB Kongsberg multibeam vendor format
0274_20101001_143121_Melville.all.mb58.gz 72.05MB Kongsberg multibeam vendor format
0275_20101001_150119_Melville.all.mb58.gz 71.98MB Kongsberg multibeam vendor format
0276_20101001_153120_Melville.all.mb58.gz 71.99MB Kongsberg multibeam vendor format
0277_20101001_160121_Melville.all.mb58.gz 71.46MB Kongsberg multibeam vendor format
0278_20101001_163120_Melville.all.mb58.gz 71.11MB Kongsberg multibeam vendor format
0279_20101001_170121_Melville.all.mb58.gz 71.25MB Kongsberg multibeam vendor format
0280_20101001_173121_Melville.all.mb58.gz 71.22MB Kongsberg multibeam vendor format
0281_20101001_180121_Melville.all.mb58.gz 71.09MB Kongsberg multibeam vendor format
0282_20101001_183120_Melville.all.mb58.gz 70.87MB Kongsberg multibeam vendor format
0283_20101001_190122_Melville.all.mb58.gz 70.85MB Kongsberg multibeam vendor format
0284_20101001_193121_Melville.all.mb58.gz 70.77MB Kongsberg multibeam vendor format
0285_20101001_200121_Melville.all.mb58.gz 70.80MB Kongsberg multibeam vendor format
0286_20101001_203120_Melville.all.mb58.gz 70.91MB Kongsberg multibeam vendor format
0287_20101001_210121_Melville.all.mb58.gz 70.59MB Kongsberg multibeam vendor format
0288_20101001_213121_Melville.all.mb58.gz 70.69MB Kongsberg multibeam vendor format
0289_20101001_220120_Melville.all.mb58.gz 70.71MB Kongsberg multibeam vendor format
0290_20101001_223121_Melville.all.mb58.gz 70.59MB Kongsberg multibeam vendor format
0291_20101001_230121_Melville.all.mb58.gz 70.68MB Kongsberg multibeam vendor format
0292_20101001_233120_Melville.all.mb58.gz 70.77MB Kongsberg multibeam vendor format
0293_20101002_000120_Melville.all.mb58.gz 70.64MB Kongsberg multibeam vendor format
0294_20101002_003119_Melville.all.mb58.gz 70.79MB Kongsberg multibeam vendor format
0295_20101002_010119_Melville.all.mb58.gz 70.80MB Kongsberg multibeam vendor format
0296_20101002_013121_Melville.all.mb58.gz 71.17MB Kongsberg multibeam vendor format
0297_20101002_020119_Melville.all.mb58.gz 71.41MB Kongsberg multibeam vendor format
0298_20101002_023120_Melville.all.mb58.gz 71.47MB Kongsberg multibeam vendor format
0299_20101002_030120_Melville.all.mb58.gz 71.41MB Kongsberg multibeam vendor format
0300_20101002_033119_Melville.all.mb58.gz 71.43MB Kongsberg multibeam vendor format
0301_20101002_040121_Melville.all.mb58.gz 71.29MB Kongsberg multibeam vendor format
0302_20101002_043119_Melville.all.mb58.gz 71.45MB Kongsberg multibeam vendor format
0303_20101002_050121_Melville.all.mb58.gz 71.02MB Kongsberg multibeam vendor format
0304_20101002_053119_Melville.all.mb58.gz 71.27MB Kongsberg multibeam vendor format
0305_20101002_060120_Melville.all.mb58.gz 71.19MB Kongsberg multibeam vendor format
0306_20101002_063119_Melville.all.mb58.gz 71.28MB Kongsberg multibeam vendor format
0307_20101002_070120_Melville.all.mb58.gz 71.77MB Kongsberg multibeam vendor format
0308_20101002_073119_Melville.all.mb58.gz 71.52MB Kongsberg multibeam vendor format
0309_20101002_080119_Melville.all.mb58.gz 71.35MB Kongsberg multibeam vendor format
0310_20101002_083120_Melville.all.mb58.gz 71.42MB Kongsberg multibeam vendor format
0311_20101002_090119_Melville.all.mb58.gz 71.39MB Kongsberg multibeam vendor format
0312_20101002_093118_Melville.all.mb58.gz 71.66MB Kongsberg multibeam vendor format
0313_20101002_100120_Melville.all.mb58.gz 71.57MB Kongsberg multibeam vendor format
0314_20101002_103119_Melville.all.mb58.gz 72.47MB Kongsberg multibeam vendor format
0315_20101002_110120_Melville.all.mb58.gz 72.90MB Kongsberg multibeam vendor format
0316_20101002_113119_Melville.all.mb58.gz 71.49MB Kongsberg multibeam vendor format
0317_20101002_120118_Melville.all.mb58.gz 70.60MB Kongsberg multibeam vendor format
0318_20101002_123119_Melville.all.mb58.gz 70.82MB Kongsberg multibeam vendor format
0319_20101002_130119_Melville.all.mb58.gz 70.89MB Kongsberg multibeam vendor format
0320_20101002_133119_Melville.all.mb58.gz 70.80MB Kongsberg multibeam vendor format
0321_20101002_140119_Melville.all.mb58.gz 70.91MB Kongsberg multibeam vendor format
0322_20101002_143119_Melville.all.mb58.gz 97.96MB Kongsberg multibeam vendor format
0323_20101002_150118_Melville.all.mb58.gz 37.36MB Kongsberg multibeam vendor format
0324_20101002_152736_Melville.all.mb58.gz 70.11MB Kongsberg multibeam vendor format
0325_20101002_155726_Melville.all.mb58.gz 83.78MB Kongsberg multibeam vendor format
0326_20101002_162729_Melville.all.mb58.gz 55.68MB Kongsberg multibeam vendor format
0327_20101002_165727_Melville.all.mb58.gz 55.94MB Kongsberg multibeam vendor format
0328_20101002_172728_Melville.all.mb58.gz 56.10MB Kongsberg multibeam vendor format
0329_20101002_175728_Melville.all.mb58.gz 56.20MB Kongsberg multibeam vendor format
0330_20101002_182730_Melville.all.mb58.gz 56.07MB Kongsberg multibeam vendor format
0331_20101002_185730_Melville.all.mb58.gz 56.02MB Kongsberg multibeam vendor format
0332_20101002_192726_Melville.all.mb58.gz 55.75MB Kongsberg multibeam vendor format
0333_20101002_195728_Melville.all.mb58.gz 55.28MB Kongsberg multibeam vendor format
0334_20101002_202728_Melville.all.mb58.gz 55.32MB Kongsberg multibeam vendor format
0335_20101002_205726_Melville.all.mb58.gz 55.66MB Kongsberg multibeam vendor format
0336_20101002_212726_Melville.all.mb58.gz 55.96MB Kongsberg multibeam vendor format
0337_20101002_215728_Melville.all.mb58.gz 55.75MB Kongsberg multibeam vendor format
0338_20101002_222726_Melville.all.mb58.gz 55.72MB Kongsberg multibeam vendor format
0339_20101002_225728_Melville.all.mb58.gz 55.76MB Kongsberg multibeam vendor format
0340_20101002_232729_Melville.all.mb58.gz 55.80MB Kongsberg multibeam vendor format
0341_20101002_235725_Melville.all.mb58.gz 56.32MB Kongsberg multibeam vendor format
0342_20101003_002730_Melville.all.mb58.gz 2.71MB Kongsberg multibeam vendor format
0343_20101003_003527_Melville.all.mb58.gz 18.4KB Kongsberg multibeam vendor format
0344_20101003_003541_Melville.all.mb58.gz 68.3KB Kongsberg multibeam vendor format
0345_20101003_004453_Melville.all.mb58.gz 54.36MB Kongsberg multibeam vendor format
0346_20101003_011454_Melville.all.mb58.gz 55.92MB Kongsberg multibeam vendor format
0347_20101003_014456_Melville.all.mb58.gz 56.35MB Kongsberg multibeam vendor format
0348_20101003_021458_Melville.all.mb58.gz 56.48MB Kongsberg multibeam vendor format
0349_20101003_024458_Melville.all.mb58.gz 56.14MB Kongsberg multibeam vendor format
0350_20101003_031457_Melville.all.mb58.gz 56.02MB Kongsberg multibeam vendor format
0351_20101003_034453_Melville.all.mb58.gz 56.29MB Kongsberg multibeam vendor format
0352_20101003_041457_Melville.all.mb58.gz 56.04MB Kongsberg multibeam vendor format
0353_20101003_044457_Melville.all.mb58.gz 56.05MB Kongsberg multibeam vendor format
0354_20101003_051456_Melville.all.mb58.gz 56.11MB Kongsberg multibeam vendor format
0355_20101003_054458_Melville.all.mb58.gz 56.06MB Kongsberg multibeam vendor format
0356_20101003_061454_Melville.all.mb58.gz 49.81MB Kongsberg multibeam vendor format
0357_20101003_064505_Melville.all.mb58.gz 39.79MB Kongsberg multibeam vendor format
0358_20101003_071507_Melville.all.mb58.gz 39.72MB Kongsberg multibeam vendor format
0359_20101003_074502_Melville.all.mb58.gz 39.84MB Kongsberg multibeam vendor format
0360_20101003_081501_Melville.all.mb58.gz 38.88MB Kongsberg multibeam vendor format
0361_20101003_084502_Melville.all.mb58.gz 39.17MB Kongsberg multibeam vendor format
0362_20101003_091501_Melville.all.mb58.gz 39.46MB Kongsberg multibeam vendor format
0363_20101003_094501_Melville.all.mb58.gz 38.16MB Kongsberg multibeam vendor format
0364_20101003_101457_Melville.all.mb58.gz 37.84MB Kongsberg multibeam vendor format
0365_20101003_104502_Melville.all.mb58.gz 36.93MB Kongsberg multibeam vendor format
0366_20101003_111505_Melville.all.mb58.gz 37.33MB Kongsberg multibeam vendor format
0367_20101003_114457_Melville.all.mb58.gz 36.23MB Kongsberg multibeam vendor format
0368_20101003_121457_Melville.all.mb58.gz 36.42MB Kongsberg multibeam vendor format
0369_20101003_124506_Melville.all.mb58.gz 17.97MB Kongsberg multibeam vendor format
0370_20101003_130038_Melville.all.mb58.gz 37.3KB Kongsberg multibeam vendor format

Metadata Files: 2

Files File Size Description
MV1012_Multibeam.xml NGDC created ISO metadata
em122_bag_info.tar.gz 18.6KB Additional cruise information